Regional Weather Roundup
Issued by NWS Cleveland, OH

Home | Current Version | Previous Version | Graphics & Text | Print | Product List | Glossary On
Versions: 1 2 3 4 5 6 7 8 9 10 11 12 13 14 15 16 17 18 19 20 21 22 23 24 25 26 27 28 29 30 31 32 33 34 35 36 37 38 39 40 41 42 43 44 45 46 47 48 49 50
000
ASUS41 KCLE 031702
RWRCLE
OHIO REGIONAL WEATHER ROUNDUP
NATIONAL WEATHER SERVICE CLEVELAND, OH
100 PM EDT MON AUG 03 2015

NOTE: "FAIR" INDICATES FEW OR NO CLOUDS BELOW 12,000 FEET WITH NO
SIGNIFICANT WEATHER AND/OR OBSTRUCTIONS TO VISIBILITY.

OHZ001>008-015>018-024>027-034-035-043-044-031800-
   NORTHWEST OHIO

CITY           SKY/WX    TMP DP  RH WIND       PRES   REMARKS
DEFIANCE       SUNNY     78  64  61 SW9       29.83S
FINDLAY        PTSUNNY   78  67  68 W13G24    29.84R
TOLEDO EXPRESS SUNNY     77  65  66 W12       29.81S
TOLEDO EXEC    SUNNY     78  64  61 SW10      29.82S
LIMA             N/A     75  67  76 SW14      29.85F
$$

OHZ009>014-019>023-028>033-038-089-031800-
   NORTHEAST OHIO

CITY           SKY/WX    TMP DP  RH WIND       PRES   REMARKS
CLE-HOPKINS    MOSUNNY   79  63  57 W12       29.83S
CLE-LAKEFRONT  SUNNY     76  65  68 W21       29.80S
CUY CO. ARPT   PTSUNNY   79  66  65 MISG      29.82S
LORAIN-ELYRIA  MOSUNNY   76  64  66 W13       29.83S
ASHTABULA      CLOUDY    72  62  71 W10       29.83R
AKRON-CANTON   MOSUNNY   81  60  48 W15       29.83R
WOOSTER        MOSUNNY   79  64  60 W15G29    29.84R
MANSFIELD      SUNNY     77  65  66 W16G31    29.86R
YOUNGSTOWN     MOSUNNY   81  60  48 SW12      29.83S
$$

OHZ042-051>053-060>062-070>072-077>081-031800-
  SOUTHWEST OHIO

CITY           SKY/WX    TMP DP  RH WIND       PRES   REMARKS
CINC-COVINGTON MOSUNNY   80  65  59 S15G25    29.89S
CINC-LUNKEN    SUNNY     81  68  64 SW15      29.87F
HAMILTON       MOSUNNY   82  67  60 SW9G17    29.88F
DAYTON         MOSUNNY   77  65  66 SW21G26   29.87F
WRIGHT-PAT AFB SUNNY     79  67  67 S21G26    29.86F
DAYTON GENERAL SUNNY     79  64  60 SW14      29.88
WILMINGTON     SUNNY     79  64  60 SW20      29.87S
$$

OHZ036-037-039>041-045>050-054>059-063>069-073>076-082>088-031800-
  CENTRAL AND SOUTHEAST OHIO

CITY           SKY/WX    TMP DP  RH WIND       PRES   REMARKS
COLUMBUS       MOSUNNY   83  60  45 SW17G26   29.84S
OSU AIRPORT    CLOUDY    81  63  54 W12G21    29.85R
BOLTON FIELD   MOSUNNY   81  64  57 SW12G18   29.87R
RICKENBACK AFB MOSUNNY   82  64  54 SW17      29.85R
NEWARK         PTSUNNY   85  64  49 W16G26    29.84S
MARION         CLOUDY    75  64  68 W15       29.86S
LANCASTER      MOSUNNY   83  63  50 SW10G22   29.86R
ZANESVILLE     PTSUNNY   83  60  45 W9        29.85R
NEW PHILLY     MOSUNNY   80  64  58 W13G20    29.85R
$$



USA.gov is the U.S. government's official web portal to all federal, state and local government web resources and services.